Flag Weather past 2 weeks in Huntington Beach, California, U.S.A.

Now
66 °F

Clear.


Feels Like: 66 °F
Forecast: 55 / 75 °F
Wind: No wind

Location: John Wayne Airport-Orange County Airport

Current Time: Nov 27, 2014 at 8:21:55 PM

Latest Report: Nov 27, 2014 at 7:53 PM


Visibility: 10 mi

Pressure: 30.01 "Hg

Humidity: 47%

Dew point: 45 °F

Location of Huntington BeachLocation

Historic Weather in Huntington Beach — Graph

°F

Huntington Beach temperature yesterday

Maximum temperature yesterday: 83 °F (at 12:53 PM)
Minimum temperature yesterday: 52 °F (at 5:53 AM)
Average temperature yesterday: 66 °F

Past Weeks' High & Low Weather Summary

 TemperatureHumidityPressure
High88 °F (Nov 27, 1:53 PM)85% (Nov 14, 2:53 AM)30.37 "Hg (Nov 14, 2:53 AM)
Low52 °F (Nov 26, 5:53 AM)2% (Nov 23, 1:53 PM)29.93 "Hg (Nov 21, 4:53 AM)
Average67 °F46%30.09 "Hg
* Reported Nov 12 5:53 PM — Nov 27 5:53 PM, Huntington Beach, Weather by CustomWeather, © 2014

Note: Actual official high and low records may vary slightly from our data, if they occured in-between our weather recording intervals... More about our weather records

Advertising

Huntington Beach weather history for previous 24 hours

 ConditionsComfort  
Time TempWeatherWind HumidityBarometerVisibility
5:53 PM
Nov 27
70 °FClear.No wind49%30.00 "Hg10 mi
4:53 PM75 °FPassing clouds.6 mph31%29.99 "Hg10 mi
3:53 PM81 °FPassing clouds.8 mph21%29.99 "Hg10 mi
2:53 PM86 °FPassing clouds.7 mph9%29.99 "Hg10 mi
1:53 PM88 °FScattered clouds.5 mph9%29.99 "Hg10 mi
12:53 PM87 °FScattered clouds.5 mph10%30.02 "Hg10 mi
11:53 AM86 °FPartly sunny.3 mph15%30.04 "Hg10 mi
10:53 AM82 °FPassing clouds.No wind13%30.07 "Hg10 mi
9:53 AM76 °FPassing clouds.No wind20%30.09 "Hg10 mi
8:53 AM67 °FPassing clouds.No wind32%30.10 "Hg10 mi
7:53 AM60 °FPassing clouds.No wind42%30.10 "Hg10 mi
6:53 AM54 °FPassing clouds.No wind59%30.09 "Hg10 mi
5:53 AM54 °FClear.No wind59%30.08 "Hg10 mi
4:53 AM54 °FClear.No wind62%30.07 "Hg10 mi
3:53 AM55 °FClear.No wind62%30.06 "Hg10 mi
2:53 AM56 °FClear.No wind60%30.08 "Hg10 mi
1:53 AM57 °FClear.No wind58%30.09 "Hg10 mi
12:53 AM59 °FClear.No wind54%30.09 "Hg10 mi
11:53 PM
Nov 26
60 °FClear.No wind52%30.10 "Hg10 mi
10:53 PM61 °FClear.No wind52%30.11 "Hg10 mi
9:53 PM64 °FClear.No wind50%30.11 "Hg10 mi
8:53 PM65 °FClear.No wind51%30.12 "Hg10 mi
Weather by CustomWeather, © 2014

See weather overviewHow to use our weather pages